Time,TemperatureF,DewpointF,PressureIn,WindDirection,WindDirectionDegrees,WindSpeedMPH,WindSpeedGustMPH,Humidity,HourlyPrecipIn,Conditions,Clouds,dailyrainin,SoftwareType,DateUTC
2013-01-08 00:00:00,36.0,34.2,30.26,SSE,158,3.0,4.0,93,0.00,,,0.00,Weather View 32 v70,2013-01-08 05:00:00,
2013-01-08 00:05:00,36.0,34.2,30.26,East,90,2.0,4.0,93,0.00,,,0.00,Weather View 32 v70,2013-01-08 05:05:00,
2013-01-08 00:13:00,35.0,33.4,30.26,East,90,0.0,4.0,94,0.00,,,0.00,Weather View 32 v70,2013-01-08 05:13:00,
2013-01-08 00:14:00,35.0,33.4,30.27,East,90,0.0,4.0,94,0.00,,,0.00,Weather View 32 v70,2013-01-08 05:14:00,
2013-01-08 00:19:00,35.0,33.4,30.26,East,90,0.0,4.0,94,0.00,,,0.00,Weather View 32 v70,2013-01-08 05:19:00,
2013-01-08 00:24:00,35.0,33.4,30.27,NNW,338,0.0,4.0,94,0.00,,,0.00,Weather View 32 v70,2013-01-08 05:24:00,
2013-01-08 00:29:00,35.0,33.4,30.27,South,180,0.0,4.0,94,0.00,,,0.00,Weather View 32 v70,2013-01-08 05:29:00,
2013-01-08 00:34:00,35.0,33.4,30.27,South,180,0.0,4.0,94,0.00,,,0.00,Weather View 32 v70,2013-01-08 05:34:00,
2013-01-08 00:39:00,35.0,33.7,30.26,NNW,338,0.0,4.0,95,0.00,,,0.00,Weather View 32 v70,2013-01-08 05:39:00,
2013-01-08 00:44:00,35.0,33.7,30.27,North,0,0.0,4.0,95,0.00,,,0.00,Weather View 32 v70,2013-01-08 05:44:00,
2013-01-08 00:49:00,34.0,32.7,30.26,North,0,0.0,4.0,95,0.00,,,0.00,Weather View 32 v70,2013-01-08 05:49:00,
2013-01-08 00:54:00,34.0,32.7,30.26,North,0,0.0,4.0,95,0.00,,,0.00,Weather View 32 v70,2013-01-08 05:54:00,
2013-01-08 00:59:00,34.0,33.0,30.25,ENE,68,0.0,4.0,96,0.00,,,0.00,Weather View 32 v70,2013-01-08 05:59:00,
2013-01-08 01:04:00,34.0,33.0,30.24,ENE,68,0.0,3.0,96,0.00,,,0.00,Weather View 32 v70,2013-01-08 06:04:00,
2013-01-08 01:09:00,34.0,33.0,30.25,East,90,0.0,3.0,96,0.00,,,0.00,Weather View 32 v70,2013-01-08 06:09:00,
2013-01-08 01:14:00,34.0,33.2,30.24,ENE,68,3.0,3.0,97,0.00,,,0.00,Weather View 32 v70,2013-01-08 06:14:00,
2013-01-08 01:19:00,34.0,33.2,30.24,East,90,1.0,3.0,97,0.00,,,0.00,Weather View 32 v70,2013-01-08 06:19:00,
2013-01-08 01:24:00,33.0,32.2,30.25,East,90,1.0,3.0,97,0.00,,,0.00,Weather View 32 v70,2013-01-08 06:24:00,
2013-01-08 01:29:00,33.0,32.2,30.24,East,90,0.0,3.0,97,0.00,,,0.00,Weather View 32 v70,2013-01-08 06:29:00,
2013-01-08 01:34:00,33.0,32.2,30.25,South,180,2.0,3.0,97,0.00,,,0.00,Weather View 32 v70,2013-01-08 06:34:00,
2013-01-08 01:39:00,33.0,32.5,30.25,South,180,0.0,3.0,98,0.00,,,0.00,Weather View 32 v70,2013-01-08 06:39:00,
2013-01-08 01:44:00,33.0,32.5,30.25,SSE,158,1.0,3.0,98,0.00,,,0.00,Weather View 32 v70,2013-01-08 06:44:00,
2013-01-08 01:49:00,33.0,32.5,30.25,East,90,3.0,3.0,98,0.00,,,0.00,Weather View 32 v70,2013-01-08 06:49:00,
2013-01-08 01:54:00,33.0,32.5,30.25,East,90,3.0,4.0,98,0.00,,,0.00,Weather View 32 v70,2013-01-08 06:54:00,
2013-01-08 01:59:00,33.0,32.5,30.25,East,90,2.0,4.0,98,0.00,,,0.00,Weather View 32 v70,2013-01-08 06:59:00,
2013-01-08 02:04:00,33.0,32.5,30.25,South,180,2.0,4.0,98,0.00,,,0.00,Weather View 32 v70,2013-01-08 07:04:00,
2013-01-08 02:09:00,34.0,33.7,30.25,East,90,0.0,5.0,99,0.00,,,0.00,Weather View 32 v70,2013-01-08 07:09:00,
2013-01-08 02:14:00,34.0,33.7,30.25,SSE,158,1.0,5.0,99,0.00,,,0.00,Weather View 32 v70,2013-01-08 07:14:00,
2013-01-08 02:19:00,34.0,33.7,30.25,East,90,1.0,5.0,99,0.00,,,0.00,Weather View 32 v70,2013-01-08 07:19:00,
2013-01-08 02:24:00,34.0,33.7,30.26,East,90,2.0,5.0,99,0.00,,,0.00,Weather View 32 v70,2013-01-08 07:24:00,
2013-01-08 02:29:00,34.0,33.7,30.26,East,90,3.0,5.0,99,0.00,,,0.00,Weather View 32 v70,2013-01-08 07:29:00,
2013-01-08 02:34:00,35.0,35.0,30.26,East,90,3.0,5.0,100,0.00,,,0.00,Weather View 32 v70,2013-01-08 07:34:00,
2013-01-08 02:39:00,35.0,34.7,30.25,East,90,2.0,5.0,99,0.00,,,0.00,Weather View 32 v70,2013-01-08 07:39:00,
2013-01-08 02:44:00,35.0,34.7,30.25,East,90,1.0,5.0,99,0.00,,,0.00,Weather View 32 v70,2013-01-08 07:44:00,
2013-01-08 02:49:00,35.0,34.7,30.26,ENE,68,0.0,5.0,99,0.00,,,0.00,Weather View 32 v70,2013-01-08 07:49:00,
2013-01-08 02:54:00,36.0,36.0,30.26,ENE,68,0.0,5.0,100,0.00,,,0.00,Weather View 32 v70,2013-01-08 07:54:00,
2013-01-08 02:59:00,36.0,35.7,30.26,ENE,68,0.0,5.0,99,0.00,,,0.00,Weather View 32 v70,2013-01-08 07:59:00,
2013-01-08 03:04:00,36.0,35.7,30.26,East,90,0.0,5.0,99,0.00,,,0.00,Weather View 32 v70,2013-01-08 08:04:00,
2013-01-08 03:09:00,36.0,35.5,30.25,East,90,0.0,5.0,98,0.00,,,0.00,Weather View 32 v70,2013-01-08 08:09:00,
2013-01-08 03:14:00,36.0,35.5,30.25,East,90,3.0,5.0,98,0.00,,,0.00,Weather View 32 v70,2013-01-08 08:14:00,
2013-01-08 03:19:00,36.0,35.5,30.26,East,90,5.0,6.0,98,0.00,,,0.00,Weather View 32 v70,2013-01-08 08:19:00,
2013-01-08 03:24:00,36.0,35.5,30.26,East,90,3.0,6.0,98,0.00,,,0.00,Weather View 32 v70,2013-01-08 08:24:00,
2013-01-08 03:29:00,36.0,35.5,30.26,East,90,3.0,6.0,98,0.00,,,0.00,Weather View 32 v70,2013-01-08 08:29:00,
2013-01-08 03:34:00,36.0,35.7,30.26,SSE,158,4.0,6.0,99,0.00,,,0.00,Weather View 32 v70,2013-01-08 08:34:00,
2013-01-08 03:39:00,37.0,36.7,30.26,East,90,3.0,7.0,99,0.00,,,0.00,Weather View 32 v70,2013-01-08 08:39:00,
2013-01-08 03:44:00,37.0,36.5,30.26,East,90,2.0,7.0,98,0.00,,,0.00,Weather View 32 v70,2013-01-08 08:44:00,
2013-01-08 03:50:00,37.0,36.5,30.26,East,90,3.0,7.0,98,0.00,,,0.00,Weather View 32 v70,2013-01-08 08:50:00,
2013-01-08 03:55:00,37.0,36.5,30.26,ENE,68,2.0,7.0,98,0.00,,,0.00,Weather View 32 v70,2013-01-08 08:55:00,
2013-01-08 04:00:00,38.0,37.2,30.26,SSE,158,0.0,7.0,97,0.00,,,0.00,Weather View 32 v70,2013-01-08 09:00:00,
2013-01-08 04:05:00,38.0,37.2,30.26,East,90,0.0,7.0,97,0.00,,,0.00,Weather View 32 v70,2013-01-08 09:05:00,
2013-01-08 04:10:00,38.0,37.0,30.26,East,90,0.0,7.0,96,0.00,,,0.00,Weather View 32 v70,2013-01-08 09:10:00,
2013-01-08 04:15:00,37.0,35.7,30.26,NNW,338,3.0,7.0,95,0.00,,,0.00,Weather View 32 v70,2013-01-08 09:15:00,
2013-01-08 04:20:00,37.0,35.7,30.26,NNW,338,3.0,7.0,95,0.00,,,0.00,Weather View 32 v70,2013-01-08 09:20:00,
2013-01-08 04:25:00,37.0,35.7,30.26,West,270,1.0,7.0,95,0.00,,,0.00,Weather View 32 v70,2013-01-08 09:25:00,
2013-01-08 04:30:00,37.0,35.7,30.26,NNW,338,3.0,7.0,95,0.00,,,0.00,Weather View 32 v70,2013-01-08 09:30:00,
2013-01-08 04:35:00,37.0,35.7,30.26,NNW,338,2.0,7.0,95,0.00,,,0.00,Weather View 32 v70,2013-01-08 09:35:00,
2013-01-08 04:40:00,37.0,35.7,30.26,ENE,68,0.0,5.0,95,0.00,,,0.00,Weather View 32 v70,2013-01-08 09:40:00,
2013-01-08 04:45:00,37.0,35.7,30.26,North,0,0.0,5.0,95,0.00,,,0.00,Weather View 32 v70,2013-01-08 09:45:00,
2013-01-08 04:50:00,37.0,35.7,30.25,ENE,68,1.0,5.0,95,0.00,,,0.00,Weather View 32 v70,2013-01-08 09:50:00,
2013-01-08 04:55:00,37.0,35.7,30.25,ENE,68,0.0,5.0,95,0.00,,,0.00,Weather View 32 v70,2013-01-08 09:55:00,
2013-01-08 05:00:00,37.0,35.7,30.25,East,90,0.0,5.0,95,0.00,,,0.00,Weather View 32 v70,2013-01-08 10:00:00,
2013-01-08 05:05:00,37.0,35.7,30.25,ENE,68,0.0,5.0,95,0.00,,,0.00,Weather View 32 v70,2013-01-08 10:05:00,
2013-01-08 05:10:00,37.0,35.7,30.26,ENE,68,0.0,5.0,95,0.00,,,0.00,Weather View 32 v70,2013-01-08 10:10:00,
2013-01-08 05:15:00,38.0,36.7,30.25,ENE,68,0.0,5.0,95,0.00,,,0.00,Weather View 32 v70,2013-01-08 10:15:00,
2013-01-08 05:20:00,38.0,36.7,30.26,ENE,68,0.0,5.0,95,0.00,,,0.00,Weather View 32 v70,2013-01-08 10:20:00,
2013-01-08 05:25:00,38.0,36.4,30.26,ENE,68,0.0,3.0,94,0.00,,,0.00,Weather View 32 v70,2013-01-08 10:25:00,
2013-01-08 05:30:00,38.0,36.4,30.26,East,90,0.0,3.0,94,0.00,,,0.00,Weather View 32 v70,2013-01-08 10:30:00,
2013-01-08 05:35:00,38.0,36.4,30.26,East,90,0.0,3.0,94,0.00,,,0.00,Weather View 32 v70,2013-01-08 10:35:00,
2013-01-08 05:40:00,38.0,36.4,30.26,East,90,0.0,3.0,94,0.00,,,0.00,Weather View 32 v70,2013-01-08 10:40:00,
2013-01-08 05:45:00,38.0,36.7,30.27,East,90,0.0,3.0,95,0.00,,,0.00,Weather View 32 v70,2013-01-08 10:45:00,
2013-01-08 05:50:00,38.0,36.7,30.27,NNW,338,1.0,3.0,95,0.00,,,0.00,Weather View 32 v70,2013-01-08 10:50:00,
2013-01-08 05:55:00,38.0,36.7,30.27,NNW,338,1.0,3.0,95,0.00,,,0.00,Weather View 32 v70,2013-01-08 10:55:00,
2013-01-08 06:00:00,38.0,36.7,30.27,East,90,0.0,3.0,95,0.00,,,0.00,Weather View 32 v70,2013-01-08 11:00:00,
2013-01-08 06:05:00,38.0,36.7,30.28,ENE,68,0.0,3.0,95,0.00,,,0.00,Weather View 32 v70,2013-01-08 11:05:00,
2013-01-08 06:10:00,39.0,37.7,30.28,SSE,158,0.0,3.0,95,0.00,,,0.00,Weather View 32 v70,2013-01-08 11:10:00,
2013-01-08 06:15:00,39.0,37.7,30.29,WSW,248,1.0,3.0,95,0.00,,,0.00,Weather View 32 v70,2013-01-08 11:15:00,
2013-01-08 06:20:00,39.0,37.7,30.29,East,90,0.0,3.0,95,0.00,,,0.00,Weather View 32 v70,2013-01-08 11:20:00,
2013-01-08 06:25:00,39.0,37.7,30.29,ENE,68,0.0,3.0,95,0.00,,,0.00,Weather View 32 v70,2013-01-08 11:25:00,
2013-01-08 06:30:00,39.0,37.4,30.29,ENE,68,0.0,3.0,94,0.00,,,0.00,Weather View 32 v70,2013-01-08 11:30:00,
2013-01-08 06:35:00,39.0,37.4,30.28,East,90,1.0,3.0,94,0.00,,,0.00,Weather View 32 v70,2013-01-08 11:35:00,
2013-01-08 06:40:00,39.0,37.4,30.29,East,90,0.0,3.0,94,0.00,,,0.00,Weather View 32 v70,2013-01-08 11:40:00,
2013-01-08 06:45:00,39.0,37.4,30.28,East,90,0.0,3.0,94,0.00,,,0.00,Weather View 32 v70,2013-01-08 11:45:00,
2013-01-08 06:50:00,39.0,37.4,30.28,ENE,68,0.0,3.0,94,0.00,,,0.00,Weather View 32 v70,2013-01-08 11:50:00,
2013-01-08 06:55:00,39.0,37.4,30.29,NNW,338,0.0,3.0,94,0.00,,,0.00,Weather View 32 v70,2013-01-08 11:55:00,
2013-01-08 07:00:00,39.0,37.7,30.29,NNW,338,0.0,3.0,95,0.00,,,0.00,Weather View 32 v70,2013-01-08 12:00:00,
2013-01-08 07:05:00,39.0,37.7,30.28,East,90,0.0,3.0,95,0.00,,,0.00,Weather View 32 v70,2013-01-08 12:05:00,
2013-01-08 07:10:00,39.0,37.7,30.28,ENE,68,0.0,3.0,95,0.00,,,0.00,Weather View 32 v70,2013-01-08 12:10:00,
2013-01-08 07:15:00,39.0,37.7,30.28,ENE,68,0.0,3.0,95,0.00,,,0.00,Weather View 32 v70,2013-01-08 12:15:00,
2013-01-08 07:20:00,39.0,37.7,30.29,ENE,68,0.0,2.0,95,0.00,,,0.00,Weather View 32 v70,2013-01-08 12:20:00,
2013-01-08 07:25:00,39.0,37.4,30.29,ENE,68,0.0,2.0,94,0.00,,,0.00,Weather View 32 v70,2013-01-08 12:25:00,
2013-01-08 07:30:00,38.0,36.7,30.29,SSE,158,0.0,2.0,95,0.00,,,0.00,Weather View 32 v70,2013-01-08 12:30:00,
2013-01-08 07:35:00,38.0,36.7,30.29,East,90,0.0,1.0,95,0.00,,,0.00,Weather View 32 v70,2013-01-08 12:35:00,
2013-01-08 07:40:00,38.0,37.0,30.29,East,90,1.0,1.0,96,0.00,,,0.00,Weather View 32 v70,2013-01-08 12:40:00,
2013-01-08 07:45:00,39.0,38.0,30.29,ENE,68,3.0,3.0,96,0.00,,,0.00,Weather View 32 v70,2013-01-08 12:45:00,
2013-01-08 07:50:00,39.0,38.0,30.29,North,0,1.0,3.0,96,0.00,,,0.00,Weather View 32 v70,2013-01-08 12:50:00,
2013-01-08 07:55:00,39.0,38.0,30.29,ENE,68,2.0,3.0,96,0.00,,,0.00,Weather View 32 v70,2013-01-08 12:55:00,
2013-01-08 08:00:00,39.0,37.7,30.29,ENE,68,2.0,5.0,95,0.00,,,0.00,Weather View 32 v70,2013-01-08 13:00:00,
2013-01-08 08:05:00,40.0,38.7,30.29,East,90,1.0,5.0,95,0.00,,,0.00,Weather View 32 v70,2013-01-08 13:05:00,
2013-01-08 08:10:00,40.0,38.4,30.29,East,90,3.0,5.0,94,0.00,,,0.00,Weather View 32 v70,2013-01-08 13:10:00,
2013-01-08 08:15:00,40.0,38.4,30.29,ENE,68,2.0,5.0,94,0.00,,,0.00,Weather View 32 v70,2013-01-08 13:15:00,
2013-01-08 08:20:00,41.0,39.1,30.28,ENE,68,5.0,6.0,93,0.00,,,0.00,Weather View 32 v70,2013-01-08 13:20:00,
2013-01-08 08:25:00,41.0,38.9,30.29,ENE,68,3.0,6.0,92,0.00,,,0.00,Weather View 32 v70,2013-01-08 13:25:00,
2013-01-08 08:30:00,41.0,38.6,30.29,ENE,68,2.0,6.0,91,0.00,,,0.00,Weather View 32 v70,2013-01-08 13:30:00,
2013-01-08 08:35:00,42.0,39.3,30.28,ENE,68,2.0,6.0,90,0.00,,,0.00,Weather View 32 v70,2013-01-08 13:35:00,
2013-01-08 08:40:00,42.0,39.0,30.28,ENE,68,3.0,7.0,89,0.00,,,0.00,Weather View 32 v70,2013-01-08 13:40:00,
2013-01-08 08:45:00,42.0,39.0,30.29,ENE,68,4.0,7.0,89,0.00,,,0.00,Weather View 32 v70,2013-01-08 13:45:00,
2013-01-08 08:50:00,43.0,40.0,30.29,East,90,0.0,7.0,89,0.00,,,0.00,Weather View 32 v70,2013-01-08 13:50:00,
2013-01-08 08:55:00,43.0,39.7,30.30,East,90,0.0,7.0,88,0.00,,,0.00,Weather View 32 v70,2013-01-08 13:55:00,
2013-01-08 09:00:00,43.0,39.4,30.30,East,90,0.0,7.0,87,0.00,,,0.00,Weather View 32 v70,2013-01-08 14:00:00,
2013-01-08 09:06:00,43.0,39.1,30.30,East,90,0.0,7.0,86,0.00,,,0.00,Weather View 32 v70,2013-01-08 14:06:00,
2013-01-08 09:11:00,44.0,39.8,30.30,North,0,2.0,7.0,85,0.00,,,0.00,Weather View 32 v70,2013-01-08 14:11:00,
2013-01-08 09:16:00,44.0,39.5,30.30,ENE,68,0.0,7.0,84,0.00,,,0.00,Weather View 32 v70,2013-01-08 14:16:00,
2013-01-08 09:21:00,45.0,40.5,30.30,ENE,68,0.0,7.0,84,0.00,,,0.00,Weather View 32 v70,2013-01-08 14:21:00,
2013-01-08 09:26:00,45.0,40.5,30.30,ENE,68,0.0,7.0,84,0.00,,,0.00,Weather View 32 v70,2013-01-08 14:26:00,
2013-01-08 09:31:00,45.0,40.1,30.30,ENE,68,0.0,7.0,83,0.00,,,0.00,Weather View 32 v70,2013-01-08 14:31:00,
2013-01-08 09:36:00,46.0,40.8,30.30,NNW,338,2.0,7.0,82,0.00,,,0.00,Weather View 32 v70,2013-01-08 14:36:00,
2013-01-08 09:41:00,46.0,40.8,30.30,ENE,68,0.0,5.0,82,0.00,,,0.00,Weather View 32 v70,2013-01-08 14:41:00,
2013-01-08 09:46:00,46.0,40.5,30.30,ENE,68,0.0,5.0,81,0.00,,,0.00,Weather View 32 v70,2013-01-08 14:46:00,
2013-01-08 09:51:00,46.0,40.5,30.29,ENE,68,1.0,3.0,81,0.00,,,0.00,Weather View 32 v70,2013-01-08 14:51:00,
2013-01-08 09:56:00,47.0,41.5,30.30,ENE,68,0.0,4.0,81,0.00,,,0.00,Weather View 32 v70,2013-01-08 14:56:00,
2013-01-08 10:01:00,47.0,40.8,30.30,ENE,68,1.0,5.0,79,0.00,,,0.00,Weather View 32 v70,2013-01-08 15:01:00,
2013-01-08 10:06:00,47.0,40.5,30.30,NNW,338,1.0,5.0,78,0.00,,,0.00,Weather View 32 v70,2013-01-08 15:06:00,
2013-01-08 10:11:00,47.0,40.5,30.31,WSW,248,1.0,5.0,78,0.00,,,0.00,Weather View 32 v70,2013-01-08 15:11:00,
2013-01-08 10:16:00,48.0,41.5,30.31,East,90,1.0,5.0,78,0.00,,,0.00,Weather View 32 v70,2013-01-08 15:16:00,
2013-01-08 10:21:00,47.0,40.2,30.31,NNW,338,3.0,5.0,77,0.00,,,0.00,Weather View 32 v70,2013-01-08 15:21:00,
2013-01-08 10:26:00,47.0,40.5,30.31,North,0,2.0,5.0,78,0.00,,,0.00,Weather View 32 v70,2013-01-08 15:26:00,
2013-01-08 10:31:00,47.0,40.5,30.31,NNW,338,2.0,5.0,78,0.00,,,0.00,Weather View 32 v70,2013-01-08 15:31:00,
2013-01-08 10:36:00,48.0,41.5,30.31,NNW,338,3.0,5.0,78,0.00,,,0.00,Weather View 32 v70,2013-01-08 15:36:00,
2013-01-08 10:41:00,48.0,41.5,30.31,NNW,338,2.0,5.0,78,0.00,,,0.00,Weather View 32 v70,2013-01-08 15:41:00,
2013-01-08 10:46:00,48.0,41.1,30.32,WSW,248,2.0,5.0,77,0.00,,,0.00,Weather View 32 v70,2013-01-08 15:46:00,
2013-01-08 10:51:00,49.0,42.1,30.32,NNW,338,3.0,5.0,77,0.00,,,0.00,Weather View 32 v70,2013-01-08 15:51:00,
2013-01-08 10:56:00,49.0,41.4,30.31,NNW,338,3.0,5.0,75,0.00,,,0.00,Weather View 32 v70,2013-01-08 15:56:00,
2013-01-08 11:01:00,49.0,41.4,30.31,North,0,3.0,5.0,75,0.00,,,0.00,Weather View 32 v70,2013-01-08 16:01:00,
2013-01-08 11:06:00,50.0,41.3,30.31,North,0,2.0,5.0,72,0.00,,,0.00,Weather View 32 v70,2013-01-08 16:06:00,
2013-01-08 11:11:00,50.0,41.0,30.31,ENE,68,1.0,5.0,71,0.00,,,0.00,Weather View 32 v70,2013-01-08 16:11:00,
2013-01-08 11:16:00,50.0,40.2,30.30,ENE,68,3.0,5.0,69,0.00,,,0.00,Weather View 32 v70,2013-01-08 16:16:00,
2013-01-08 11:21:00,51.0,40.8,30.30,ENE,68,4.0,5.0,68,0.00,,,0.00,Weather View 32 v70,2013-01-08 16:21:00,
2013-01-08 11:26:00,51.0,39.6,30.30,ENE,68,6.0,6.0,65,0.00,,,0.00,Weather View 32 v70,2013-01-08 16:26:00,
2013-01-08 11:31:00,51.0,39.2,30.30,North,0,3.0,8.0,64,0.00,,,0.00,Weather View 32 v70,2013-01-08 16:31:00,
2013-01-08 11:36:00,52.0,40.2,30.29,ENE,68,1.0,8.0,64,0.00,,,0.00,Weather View 32 v70,2013-01-08 16:36:00,
2013-01-08 11:41:00,52.0,39.8,30.29,ENE,68,5.0,8.0,63,0.00,,,0.00,Weather View 32 v70,2013-01-08 16:41:00,
2013-01-08 11:46:00,52.0,39.8,30.29,North,0,1.0,8.0,63,0.00,,,0.00,Weather View 32 v70,2013-01-08 16:46:00,
2013-01-08 11:51:00,52.0,39.4,30.29,ENE,68,2.0,8.0,62,0.00,,,0.00,Weather View 32 v70,2013-01-08 16:51:00,
2013-01-08 11:56:00,53.0,40.3,30.29,North,0,1.0,8.0,62,0.00,,,0.00,Weather View 32 v70,2013-01-08 16:56:00,
2013-01-08 12:01:00,53.0,39.9,30.29,ENE,68,2.0,8.0,61,0.00,,,0.00,Weather View 32 v70,2013-01-08 17:01:00,
2013-01-08 12:06:00,53.0,39.9,30.29,East,90,2.0,8.0,61,0.00,,,0.00,Weather View 32 v70,2013-01-08 17:06:00,
2013-01-08 12:11:00,53.0,39.9,30.29,ENE,68,4.0,8.0,61,0.00,,,0.00,Weather View 32 v70,2013-01-08 17:11:00,
2013-01-08 12:16:00,54.0,40.8,30.28,ENE,68,3.0,8.0,61,0.00,,,0.00,Weather View 32 v70,2013-01-08 17:16:00,
2013-01-08 12:21:00,54.0,40.0,30.28,North,0,2.0,8.0,59,0.00,,,0.00,Weather View 32 v70,2013-01-08 17:21:00,
2013-01-08 12:26:00,54.0,40.4,30.28,North,0,2.0,8.0,60,0.00,,,0.00,Weather View 32 v70,2013-01-08 17:26:00,
2013-01-08 12:31:00,54.0,40.0,30.28,SSE,158,2.0,8.0,59,0.00,,,0.00,Weather View 32 v70,2013-01-08 17:31:00,
2013-01-08 12:36:00,55.0,40.9,30.28,ENE,68,2.0,8.0,59,0.00,,,0.00,Weather View 32 v70,2013-01-08 17:36:00,
2013-01-08 12:41:00,55.0,40.9,30.28,East,90,2.0,6.0,59,0.00,,,0.00,Weather View 32 v70,2013-01-08 17:41:00,
2013-01-08 12:46:00,55.0,40.9,30.27,ENE,68,0.0,6.0,59,0.00,,,0.00,Weather View 32 v70,2013-01-08 17:46:00,
2013-01-08 12:51:00,56.0,41.8,30.27,North,0,1.0,5.0,59,0.00,,,0.00,Weather View 32 v70,2013-01-08 17:51:00,
2013-01-08 12:56:00,56.0,41.4,30.27,ENE,68,1.0,5.0,58,0.00,,,0.00,Weather View 32 v70,2013-01-08 17:56:00,
2013-01-08 13:01:00,56.0,41.4,30.27,West,270,2.0,5.0,58,0.00,,,0.00,Weather View 32 v70,2013-01-08 18:01:00,
2013-01-08 13:06:00,56.0,41.4,30.27,East,90,1.0,5.0,58,0.00,,,0.00,Weather View 32 v70,2013-01-08 18:06:00,
2013-01-08 13:11:00,56.0,41.4,30.26,NNW,338,3.0,5.0,58,0.00,,,0.00,Weather View 32 v70,2013-01-08 18:11:00,
2013-01-08 13:16:00,56.0,41.4,30.26,North,0,1.0,5.0,58,0.00,,,0.00,Weather View 32 v70,2013-01-08 18:16:00,
2013-01-08 13:21:00,56.0,41.4,30.25,SSE,158,0.0,5.0,58,0.00,,,0.00,Weather View 32 v70,2013-01-08 18:21:00,
2013-01-08 13:26:00,56.0,40.9,30.25,ENE,68,1.0,6.0,57,0.00,,,0.00,Weather View 32 v70,2013-01-08 18:26:00,
2013-01-08 13:31:00,56.0,40.9,30.25,East,90,0.0,6.0,57,0.00,,,0.00,Weather View 32 v70,2013-01-08 18:31:00,
2013-01-08 13:36:00,56.0,41.4,30.25,North,0,8.0,8.0,58,0.00,,,0.00,Weather View 32 v70,2013-01-08 18:36:00,
2013-01-08 13:41:00,56.0,40.9,30.25,North,0,1.0,8.0,57,0.00,,,0.00,Weather View 32 v70,2013-01-08 18:41:00,
2013-01-08 13:46:00,56.0,40.9,30.25,North,0,3.0,8.0,57,0.00,,,0.00,Weather View 32 v70,2013-01-08 18:46:00,
2013-01-08 13:51:00,56.0,41.4,30.24,North,0,3.0,8.0,58,0.00,,,0.00,Weather View 32 v70,2013-01-08 18:51:00,
2013-01-08 13:56:00,56.0,41.4,30.24,North,0,3.0,8.0,58,0.00,,,0.00,Weather View 32 v70,2013-01-08 18:56:00,
2013-01-08 14:01:00,56.0,41.4,30.24,ENE,68,1.0,8.0,58,0.00,,,0.00,Weather View 32 v70,2013-01-08 19:01:00,
2013-01-08 14:06:00,56.0,41.4,30.24,East,90,5.0,8.0,58,0.00,,,0.00,Weather View 32 v70,2013-01-08 19:06:00,
2013-01-08 14:11:00,56.0,41.8,30.24,ENE,68,3.0,8.0,59,0.00,,,0.00,Weather View 32 v70,2013-01-08 19:11:00,
2013-01-08 14:16:00,57.0,42.8,30.24,East,90,0.0,8.0,59,0.00,,,0.00,Weather View 32 v70,2013-01-08 19:16:00,
2013-01-08 14:21:00,57.0,42.8,30.24,East,90,2.0,8.0,59,0.00,,,0.00,Weather View 32 v70,2013-01-08 19:21:00,
2013-01-08 14:26:00,57.0,43.2,30.24,East,90,4.0,8.0,60,0.00,,,0.00,Weather View 32 v70,2013-01-08 19:26:00,
2013-01-08 14:31:00,57.0,43.2,30.24,East,90,1.0,8.0,60,0.00,,,0.00,Weather View 32 v70,2013-01-08 19:31:00,
2013-01-08 14:36:00,57.0,42.8,30.23,East,90,0.0,8.0,59,0.00,,,0.00,Weather View 32 v70,2013-01-08 19:36:00,
2013-01-08 14:41:00,58.0,44.2,30.23,SSE,158,2.0,6.0,60,0.00,,,0.00,Weather View 32 v70,2013-01-08 19:41:00,
2013-01-08 14:46:00,58.0,43.7,30.23,East,90,1.0,6.0,59,0.00,,,0.00,Weather View 32 v70,2013-01-08 19:46:00,
2013-01-08 14:51:00,58.0,43.7,30.24,ENE,68,0.0,6.0,59,0.00,,,0.00,Weather View 32 v70,2013-01-08 19:51:00,
2013-01-08 14:56:00,58.0,43.7,30.24,East,90,0.0,5.0,59,0.00,,,0.00,Weather View 32 v70,2013-01-08 19:56:00,
2013-01-08 15:01:00,58.0,44.6,30.23,South,180,3.0,5.0,61,0.00,,,0.00,Weather View 32 v70,2013-01-08 20:01:00,
2013-01-08 15:06:00,58.0,44.2,30.23,WSW,248,2.0,5.0,60,0.00,,,0.00,Weather View 32 v70,2013-01-08 20:06:00,
2013-01-08 15:11:00,58.0,44.6,30.23,South,180,3.0,5.0,61,0.00,,,0.00,Weather View 32 v70,2013-01-08 20:11:00,
2013-01-08 15:16:00,58.0,44.6,30.23,SSE,158,1.0,5.0,61,0.00,,,0.00,Weather View 32 v70,2013-01-08 20:16:00,
2013-01-08 15:21:00,58.0,44.2,30.23,NNW,338,0.0,5.0,60,0.00,,,0.00,Weather View 32 v70,2013-01-08 20:21:00,
2013-01-08 15:26:00,58.0,43.7,30.23,NNW,338,4.0,5.0,59,0.00,,,0.00,Weather View 32 v70,2013-01-08 20:26:00,
2013-01-08 15:31:00,57.0,42.8,30.24,NNW,338,3.0,5.0,59,0.00,,,0.00,Weather View 32 v70,2013-01-08 20:31:00,
2013-01-08 15:36:00,57.0,43.2,30.24,NNW,338,3.0,5.0,60,0.00,,,0.00,Weather View 32 v70,2013-01-08 20:36:00,
2013-01-08 15:41:00,57.0,43.2,30.24,NNW,338,5.0,5.0,60,0.00,,,0.00,Weather View 32 v70,2013-01-08 20:41:00,
2013-01-08 15:46:00,57.0,43.7,30.24,West,270,3.0,6.0,61,0.00,,,0.00,Weather View 32 v70,2013-01-08 20:46:00,
2013-01-08 15:51:00,57.0,43.2,30.23,West,270,2.0,6.0,60,0.00,,,0.00,Weather View 32 v70,2013-01-08 20:51:00,
2013-01-08 15:56:00,57.0,43.2,30.23,North,0,3.0,6.0,60,0.00,,,0.00,Weather View 32 v70,2013-01-08 20:56:00,
2013-01-08 16:01:00,56.0,42.7,30.23,NNW,338,2.0,6.0,61,0.00,,,0.00,Weather View 32 v70,2013-01-08 21:01:00,
2013-01-08 16:06:00,56.0,42.7,30.23,NNW,338,4.0,6.0,61,0.00,,,0.00,Weather View 32 v70,2013-01-08 21:06:00,
2013-01-08 16:11:00,56.0,42.7,30.23,West,270,3.0,6.0,61,0.00,,,0.00,Weather View 32 v70,2013-01-08 21:11:00,
2013-01-08 16:16:00,57.0,43.7,30.23,East,90,0.0,6.0,61,0.00,,,0.00,Weather View 32 v70,2013-01-08 21:16:00,
2013-01-08 16:21:00,57.0,43.7,30.24,NNW,338,3.0,6.0,61,0.00,,,0.00,Weather View 32 v70,2013-01-08 21:21:00,
2013-01-08 16:26:00,57.0,43.7,30.23,ENE,68,1.0,6.0,61,0.00,,,0.00,Weather View 32 v70,2013-01-08 21:26:00,
2013-01-08 16:31:00,57.0,43.2,30.23,ENE,68,0.0,6.0,60,0.00,,,0.00,Weather View 32 v70,2013-01-08 21:31:00,
2013-01-08 16:36:00,56.0,42.7,30.23,NNW,338,1.0,6.0,61,0.00,,,0.00,Weather View 32 v70,2013-01-08 21:36:00,
2013-01-08 16:41:00,56.0,42.7,30.23,North,0,2.0,6.0,61,0.00,,,0.00,Weather View 32 v70,2013-01-08 21:41:00,
2013-01-08 16:46:00,56.0,42.7,30.23,ENE,68,2.0,6.0,61,0.00,,,0.00,Weather View 32 v70,2013-01-08 21:46:00,
2013-01-08 16:51:00,56.0,42.7,30.23,North,0,3.0,6.0,61,0.00,,,0.00,Weather View 32 v70,2013-01-08 21:51:00,
2013-01-08 16:56:00,55.0,43.0,30.23,NNW,338,1.0,6.0,64,0.00,,,0.00,Weather View 32 v70,2013-01-08 21:56:00,
2013-01-08 17:01:00,55.0,42.6,30.23,North,0,2.0,6.0,63,0.00,,,0.00,Weather View 32 v70,2013-01-08 22:01:00,
2013-01-08 17:06:00,55.0,42.6,30.23,ENE,68,1.0,6.0,63,0.00,,,0.00,Weather View 32 v70,2013-01-08 22:06:00,
2013-01-08 17:11:00,55.0,42.6,30.23,North,0,0.0,6.0,63,0.00,,,0.00,Weather View 32 v70,2013-01-08 22:11:00,
2013-01-08 17:17:00,55.0,42.6,30.23,ENE,68,0.0,6.0,63,0.00,,,0.00,Weather View 32 v70,2013-01-08 22:17:00,
2013-01-08 17:22:00,55.0,42.6,30.23,ENE,68,0.0,6.0,63,0.00,,,0.00,Weather View 32 v70,2013-01-08 22:22:00,
2013-01-08 17:27:00,55.0,43.0,30.23,East,90,1.0,6.0,64,0.00,,,0.00,Weather View 32 v70,2013-01-08 22:27:00,
2013-01-08 17:32:00,55.0,43.0,30.23,ENE,68,3.0,6.0,64,0.00,,,0.00,Weather View 32 v70,2013-01-08 22:32:00,
2013-01-08 17:37:00,55.0,43.0,30.23,ENE,68,2.0,6.0,64,0.00,,,0.00,Weather View 32 v70,2013-01-08 22:37:00,
2013-01-08 17:42:00,55.0,43.0,30.23,North,0,2.0,4.0,64,0.00,,,0.00,Weather View 32 v70,2013-01-08 22:42:00,
2013-01-08 17:47:00,55.0,43.0,30.23,ENE,68,1.0,4.0,64,0.00,,,0.00,Weather View 32 v70,2013-01-08 22:47:00,
2013-01-08 17:52:00,55.0,43.0,30.23,North,0,1.0,4.0,64,0.00,,,0.00,Weather View 32 v70,2013-01-08 22:52:00,
2013-01-08 17:57:00,55.0,43.0,30.23,North,0,1.0,4.0,64,0.00,,,0.00,Weather View 32 v70,2013-01-08 22:57:00,
2013-01-08 18:02:00,55.0,43.0,30.23,ENE,68,1.0,4.0,64,0.00,,,0.00,Weather View 32 v70,2013-01-08 23:02:00,
2013-01-08 18:07:00,55.0,43.0,30.24,NNW,338,1.0,4.0,64,0.00,,,0.00,Weather View 32 v70,2013-01-08 23:07:00,
2013-01-08 18:12:00,55.0,43.4,30.24,NNW,338,2.0,4.0,65,0.00,,,0.00,Weather View 32 v70,2013-01-08 23:12:00,
2013-01-08 18:17:00,55.0,43.4,30.24,North,0,0.0,4.0,65,0.00,,,0.00,Weather View 32 v70,2013-01-08 23:17:00,
2013-01-08 18:22:00,55.0,43.8,30.24,ENE,68,0.0,4.0,66,0.00,,,0.00,Weather View 32 v70,2013-01-08 23:22:00,
2013-01-08 18:27:00,55.0,43.4,30.24,ENE,68,1.0,4.0,65,0.00,,,0.00,Weather View 32 v70,2013-01-08 23:27:00,
2013-01-08 18:32:00,55.0,43.4,30.24,ENE,68,0.0,4.0,65,0.00,,,0.00,Weather View 32 v70,2013-01-08 23:32:00,
2013-01-08 18:37:00,55.0,43.4,30.24,North,0,1.0,4.0,65,0.00,,,0.00,Weather View 32 v70,2013-01-08 23:37:00,
2013-01-08 18:42:00,54.0,43.3,30.23,NNW,338,2.0,4.0,67,0.00,,,0.00,Weather View 32 v70,2013-01-08 23:42:00,
2013-01-08 18:47:00,54.0,42.9,30.23,North,0,2.0,4.0,66,0.00,,,0.00,Weather View 32 v70,2013-01-08 23:47:00,
2013-01-08 18:52:00,54.0,42.9,30.23,ENE,68,2.0,4.0,66,0.00,,,0.00,Weather View 32 v70,2013-01-08 23:52:00,
2013-01-08 18:57:00,54.0,42.9,30.23,ENE,68,2.0,4.0,66,0.00,,,0.00,Weather View 32 v70,2013-01-08 23:57:00,
2013-01-08 19:02:00,54.0,42.9,30.23,ENE,68,1.0,4.0,66,0.00,,,0.00,Weather View 32 v70,2013-01-09 00:02:00,
2013-01-08 19:07:00,54.0,42.9,30.24,North,0,1.0,4.0,66,0.00,,,0.00,Weather View 32 v70,2013-01-09 00:07:00,
2013-01-08 19:12:00,54.0,42.9,30.24,North,0,1.0,4.0,66,0.00,,,0.00,Weather View 32 v70,2013-01-09 00:12:00,
2013-01-08 19:17:00,54.0,43.3,30.24,ENE,68,0.0,4.0,67,0.00,,,0.00,Weather View 32 v70,2013-01-09 00:17:00,
2013-01-08 19:22:00,54.0,43.3,30.23,ENE,68,2.0,4.0,67,0.00,,,0.00,Weather View 32 v70,2013-01-09 00:22:00,
2013-01-08 19:27:00,54.0,43.7,30.23,ENE,68,4.0,4.0,68,0.00,,,0.00,Weather View 32 v70,2013-01-09 00:27:00,
2013-01-08 19:32:00,54.0,43.7,30.23,ENE,68,5.0,5.0,68,0.00,,,0.00,Weather View 32 v70,2013-01-09 00:32:00,
2013-01-08 19:37:00,54.0,43.3,30.23,ENE,68,5.0,7.0,67,0.00,,,0.00,Weather View 32 v70,2013-01-09 00:37:00,
2013-01-08 19:42:00,54.0,43.3,30.23,ENE,68,3.0,7.0,67,0.00,,,0.00,Weather View 32 v70,2013-01-09 00:42:00,
2013-01-08 19:47:00,54.0,43.3,30.23,ENE,68,1.0,7.0,67,0.00,,,0.00,Weather View 32 v70,2013-01-09 00:47:00,
2013-01-08 19:52:00,54.0,43.3,30.23,ENE,68,3.0,7.0,67,0.00,,,0.00,Weather View 32 v70,2013-01-09 00:52:00,
2013-01-08 19:57:00,54.0,43.3,30.24,East,90,3.0,7.0,67,0.00,,,0.00,Weather View 32 v70,2013-01-09 00:57:00,
2013-01-08 20:02:00,54.0,43.3,30.24,East,90,0.0,7.0,67,0.00,,,0.00,Weather View 32 v70,2013-01-09 01:02:00,
2013-01-08 20:07:00,54.0,43.3,30.23,East,90,3.0,7.0,67,0.00,,,0.00,Weather View 32 v70,2013-01-09 01:07:00,
2013-01-08 20:12:00,54.0,43.7,30.23,East,90,1.0,7.0,68,0.00,,,0.00,Weather View 32 v70,2013-01-09 01:12:00,
2013-01-08 20:17:00,54.0,43.7,30.23,East,90,1.0,7.0,68,0.00,,,0.00,Weather View 32 v70,2013-01-09 01:17:00,
2013-01-08 20:22:00,54.0,44.0,30.24,ENE,68,0.0,7.0,69,0.00,,,0.00,Weather View 32 v70,2013-01-09 01:22:00,
2013-01-08 20:27:00,54.0,43.7,30.24,East,90,0.0,7.0,68,0.00,,,0.00,Weather View 32 v70,2013-01-09 01:27:00,
2013-01-08 20:32:00,54.0,44.0,30.24,East,90,0.0,7.0,69,0.00,,,0.00,Weather View 32 v70,2013-01-09 01:32:00,
2013-01-08 20:37:00,53.0,43.5,30.24,South,180,1.0,7.0,70,0.00,,,0.00,Weather View 32 v70,2013-01-09 01:37:00,
2013-01-08 20:42:00,53.0,43.8,30.24,East,90,0.0,5.0,71,0.00,,,0.00,Weather View 32 v70,2013-01-09 01:42:00,
2013-01-08 20:47:00,53.0,43.8,30.24,East,90,0.0,5.0,71,0.00,,,0.00,Weather View 32 v70,2013-01-09 01:47:00,
2013-01-08 20:52:00,53.0,43.8,30.24,East,90,0.0,5.0,71,0.00,,,0.00,Weather View 32 v70,2013-01-09 01:52:00,
2013-01-08 20:57:00,52.0,43.2,30.24,SSE,158,1.0,5.0,72,0.00,,,0.00,Weather View 32 v70,2013-01-09 01:57:00,
2013-01-08 21:02:00,52.0,43.6,30.23,East,90,1.0,5.0,73,0.00,,,0.00,Weather View 32 v70,2013-01-09 02:02:00,
2013-01-08 21:07:00,52.0,44.0,30.23,East,90,0.0,5.0,74,0.00,,,0.00,Weather View 32 v70,2013-01-09 02:07:00,
2013-01-08 21:12:00,51.0,43.0,30.23,ENE,68,0.0,5.0,74,0.00,,,0.00,Weather View 32 v70,2013-01-09 02:12:00,
2013-01-08 21:17:00,51.0,43.3,30.23,East,90,0.0,3.0,75,0.00,,,0.00,Weather View 32 v70,2013-01-09 02:17:00,
2013-01-08 21:22:00,51.0,43.7,30.23,East,90,2.0,3.0,76,0.00,,,0.00,Weather View 32 v70,2013-01-09 02:22:00,
2013-01-08 21:27:00,50.0,43.1,30.23,East,90,2.0,3.0,77,0.00,,,0.00,Weather View 32 v70,2013-01-09 02:27:00,
2013-01-08 21:32:00,50.0,43.4,30.23,East,90,1.0,3.0,78,0.00,,,0.00,Weather View 32 v70,2013-01-09 02:32:00,
2013-01-08 21:37:00,50.0,43.4,30.22,ENE,68,1.0,3.0,78,0.00,,,0.00,Weather View 32 v70,2013-01-09 02:37:00,
2013-01-08 21:42:00,50.0,43.7,30.22,East,90,1.0,3.0,79,0.00,,,0.00,Weather View 32 v70,2013-01-09 02:42:00,
2013-01-08 21:47:00,49.0,43.1,30.22,East,90,1.0,3.0,80,0.00,,,0.00,Weather View 32 v70,2013-01-09 02:47:00,
2013-01-08 21:52:00,49.0,43.4,30.22,East,90,1.0,3.0,81,0.00,,,0.00,Weather View 32 v70,2013-01-09 02:52:00,
2013-01-08 21:57:00,49.0,43.4,30.22,East,90,3.0,3.0,81,0.00,,,0.00,Weather View 32 v70,2013-01-09 02:57:00,
2013-01-08 22:02:00,49.0,43.7,30.22,ENE,68,1.0,3.0,82,0.00,,,0.00,Weather View 32 v70,2013-01-09 03:02:00,
2013-01-08 22:07:00,49.0,43.7,30.22,East,90,1.0,3.0,82,0.00,,,0.00,Weather View 32 v70,2013-01-09 03:07:00,
2013-01-08 22:12:00,48.0,42.8,30.22,ENE,68,2.0,3.0,82,0.00,,,0.00,Weather View 32 v70,2013-01-09 03:12:00,
2013-01-08 22:17:00,48.0,43.1,30.22,East,90,0.0,3.0,83,0.00,,,0.00,Weather View 32 v70,2013-01-09 03:17:00,
2013-01-08 22:22:00,48.0,43.1,30.23,East,90,0.0,3.0,83,0.00,,,0.00,Weather View 32 v70,2013-01-09 03:22:00,
2013-01-08 22:27:00,48.0,43.4,30.23,SSE,158,0.0,3.0,84,0.00,,,0.00,Weather View 32 v70,2013-01-09 03:27:00,
2013-01-08 22:32:00,48.0,43.4,30.23,West,270,0.0,3.0,84,0.00,,,0.00,Weather View 32 v70,2013-01-09 03:32:00,
2013-01-08 22:37:00,48.0,43.4,30.23,West,270,1.0,3.0,84,0.00,,,0.00,Weather View 32 v70,2013-01-09 03:37:00,
2013-01-08 22:42:00,48.0,43.4,30.23,NNW,338,3.0,3.0,84,0.00,,,0.00,Weather View 32 v70,2013-01-09 03:42:00,
2013-01-08 22:47:00,48.0,43.7,30.23,West,270,3.0,4.0,85,0.00,,,0.00,Weather View 32 v70,2013-01-09 03:47:00,
2013-01-08 22:52:00,48.0,43.7,30.23,West,270,2.0,4.0,85,0.00,,,0.00,Weather View 32 v70,2013-01-09 03:52:00,
2013-01-08 22:57:00,48.0,43.7,30.24,West,270,2.0,4.0,85,0.00,,,0.00,Weather View 32 v70,2013-01-09 03:57:00,
2013-01-08 23:02:00,48.0,43.7,30.24,SSE,158,0.0,4.0,85,0.00,,,0.00,Weather View 32 v70,2013-01-09 04:02:00,
2013-01-08 23:07:00,48.0,43.7,30.24,East,90,0.0,4.0,85,0.00,,,0.00,Weather View 32 v70,2013-01-09 04:07:00,
2013-01-08 23:12:00,48.0,43.7,30.24,East,90,1.0,4.0,85,0.00,,,0.00,Weather View 32 v70,2013-01-09 04:12:00,
2013-01-08 23:17:00,48.0,43.7,30.23,East,90,2.0,4.0,85,0.00,,,0.00,Weather View 32 v70,2013-01-09 04:17:00,
2013-01-08 23:22:00,48.0,43.7,30.23,East,90,2.0,4.0,85,0.00,,,0.00,Weather View 32 v70,2013-01-09 04:22:00,
2013-01-08 23:27:00,48.0,43.7,30.23,East,90,2.0,4.0,85,0.00,,,0.00,Weather View 32 v70,2013-01-09 04:27:00,
2013-01-08 23:32:00,48.0,44.0,30.23,East,90,3.0,6.0,86,0.00,,,0.00,Weather View 32 v70,2013-01-09 04:32:00,
2013-01-08 23:37:00,48.0,44.0,30.23,East,90,2.0,6.0,86,0.00,,,0.00,Weather View 32 v70,2013-01-09 04:37:00,
2013-01-08 23:42:00,48.0,44.0,30.22,East,90,4.0,7.0,86,0.00,,,0.00,Weather View 32 v70,2013-01-09 04:42:00,
2013-01-08 23:47:00,48.0,44.0,30.22,SSE,158,1.0,7.0,86,0.00,,,0.00,Weather View 32 v70,2013-01-09 04:47:00,
2013-01-08 23:53:00,49.0,45.0,30.23,SSE,158,1.0,7.0,86,0.00,,,0.00,Weather View 32 v70,2013-01-09 04:53:00,
2013-01-08 23:58:00,49.0,45.0,30.23,East,90,0.0,7.0,86,0.00,,,0.00,Weather View 32 v70,2013-01-09 04:58:00,